Hourly Data Report for November 04, 2019

CARBERRY CS
MANITOBA
Current Station Operator: ECCC - MSC

49°54'20.900" N
99°21'26.800" W
383.50 m
5010547
71170
WZE

Download Data

Hourly Data (November 2019)
Hourly Data Report for November 4, 2019
TIME
LST
Temp Definition
°C
Dew Point Definition
°C
Rel Hum Definition
%
Precip. Amount Definition
mm

Wind Dir Definition
10's deg

Wind Spd Definition
km/h
Visibility Definition
km
Stn Press Definition
kPa
Hmdx Definition


Wind Chill Definition


Weather Definition


00:00 -2.4 -2.4 100 0.0 27 10   96.67   -6 LegendNANA
01:00 -2.4 -3.2 94 0.0 29 13   96.72   -7 LegendNANA
02:00 -2.1 -2.7 96 0.0 28 10   96.74   -6 LegendNANA
03:00 -2.8 -3.6 94 0.2 33 18   96.81   -8 LegendNANA
04:00 -4.6 -7.2 82 0.3 1 24   96.88   -12 LegendNANA
05:00 -5.5 -8.2 81 0.0 36 19   96.97   -12 LegendNANA
06:00 -5.9 -10.2 72 0.0 35 13   97.06   -11 LegendNANA
07:00 -8.2 -13.0 68 0.0 32 15   LegendMM   -15 LegendNANA
08:00 -10.7 -14.8 72 0.0 28 9   97.23   -16 LegendNANA
09:00 -7.8 -13.6 63 0.0 28 17   97.27   -14 LegendNANA
10:00 -5.8 -12.3 60 0.0 28 20   97.24   -13 LegendNANA
11:00 -4.8 -11.6 59 0.0 29 24   97.24   -12 LegendNANA
12:00 -4.5 -11.3 59 0.0 31 25   97.27   -12 LegendNANA
13:00 -5.6 -12.0 61 0.0 31 28   97.28   -14 LegendNANA
14:00 -5.9 -13.6 54 0.0 31 28   97.33   -14 LegendNANA
15:00 -5.5 -13.2 55 0.0 30 24   97.35   -13 LegendNANA
16:00 -5.7 -13.3 55 0.0 30 27   97.38   -14 LegendNANA
17:00 -6.9 -14.0 57 0.0 29 27   97.43   -15 LegendNANA
18:00 -8.3 -14.2 62 0.0 29 16   97.50   -15 LegendNANA
19:00 -9.2 -13.9 69 0.0 29 14   97.52   -16 LegendNANA
20:00 -9.8 -13.6 74 0.0 30 13   97.53   -16 LegendNANA
21:00 -10.1 -14.2 72 0.0 28 15   97.55   -17 LegendNANA
22:00 -11.2 -14.8 75 0.0 29 10   97.60   -17 LegendNANA
23:00 -12.0 -14.8 79 0.0 28 12   97.62   -18 LegendNANA

Notes on Data Quality.

Legend

  • E = Estimated
  • M = Missing
  • NA = Not Available*
  • [empty] = Indicates an unobserved value
Date modified: